Regional Weather Roundup
Issued by NWS

Home | Current Version | Previous Version | Graphics & Text | Print | Product List | Glossary On
Versions: 1 2 3 4 5 6 7 8 9 10 11 12 13 14 15 16 17 18 19 20 21 22 23 24 25 26 27 28 29 30 31 32 33 34 35 36 37 38 39 40 41 42 43 44 45 46 47 48 49 50
000
ASUS45 KBOI 280710
RWRID
WEATHER ROUNDUP FOR IDAHO
NATIONAL WEATHER SERVICE BOISE ID
1200 AM MST FRI NOV 28 2014

NOTE: "FAIR" INDICATES FEW OR NO CLOUDS BELOW 12000 FEET
WITH NO SIGNIFICANT WEATHER AND/OR OBSTRUCTIONS TO VISIBILITY

IDZ012-014-280800-
SOUTHWEST IDAHO


CITY           SKY/WX    TMP DP  RH WIND       PRES   REMARKS
BOISE          CLOUDY    42  40  92 CALM      29.99S
CALDWELL       NOT AVBL
MOUNTAIN HOME  MOCLDY    41  41 100 S3        29.98R
$$

IDZ016-017-280800-
SOUTHCENTRAL IDAHO


CITY           SKY/WX    TMP DP  RH WIND       PRES   REMARKS
BURLEY         CLOUDY    53  26  35 SW15      30.01F
JEROME         CLOUDY    48  28  46 CALM      30.02S
TWIN FALLS     CLOUDY    56  27  32 S15       30.00F
$$

IDZ019>023-280800-
SOUTHEAST IDAHO


CITY           SKY/WX    TMP DP  RH WIND       PRES   REMARKS
IDAHO FALLS    CLOUDY    40  30  67 SW9       30.03F WCI  34
POCATELLO      CLEAR     50  23  34 S6        30.03F
REXBURG        CLOUDY    46  27  47 S14       30.01F
$$

IDZ006-010-011-018-031-032-280800-
CENTRAL IDAHO MOUNTAINS


CITY           SKY/WX    TMP DP  RH WIND       PRES   REMARKS
MCCALL         LGT RAIN  36  35  96 S5        29.99F WCI  32
HAILEY         CLOUDY    37  32  81 NW8       30.07F WCI  31
STANLEY          N/A     41  26  55 W5        30.04F
SALMON         CLOUDY    39  36  87 SE9       29.94S WCI  33
CHALLIS        CLOUDY    40  32  73 CALM      29.99F
$$

IDZ002-004-006-007-026-280800-
NORTHERN IDAHO


CITY           SKY/WX    TMP DP  RH WIND       PRES   REMARKS
LEWISTON       CLOUDY    58  43  57 S20       29.79S
LOWELL           N/A     42  41  96 NW3       29.89F
COEUR D`ALENE  MOCLDY    48  39  71 S9        29.72F
MULLAN PASS    LGT RAIN  36  36 100 SW14G30   29.75F FOG     WCI  27
$$



USA.gov is the U.S. government's official web portal to all federal, state and local government web resources and services.